sat.trackr.live / text

‹ back to catalog

STARLINK-37217

NORAD 68335 · 2026-059Q

PAYLOAD ACTIVE UNKNOWN

§ Identity

Operator
Country
US
Launch date
2026-03-22
Launch site
AFETR
Launch vehicle
Mass (kg)
RCS (m²)

Purposes: comms

External: N2YO · Heavens-Above · Gunter

§ Orbital elements

Epoch: 2026-09-20T04:16:14.426400Z

Period
93.85 min
Inclination
53.1577°
Eccentricity
0.0001165
Mean motion
15.34407345 rev/d
Perigee alt
461.9 km
Apogee alt
463.5 km
Semi-major
6,840.8 km
B*
4.0731e-4
RAAN
155.5687°
Arg perigee
81.8923°
Mean anomaly
278.2212°
Rev number
2,808

§ Raw data

STARLINK-372171 68335U 26059Q   26263.17794475  .00013413  00000+0  40731-3 0  99992 68335  53.1577 155.5687 0001165  81.8923 278.2212 15.34407345 28084

JSON: /api/v1/satellites/68335 · /tle

For live sub-satellite position, see the globe view (requires WebGL).

§ Visibility from observer

Set your observer location to see the next 7 days of passes ≥ 10°. The values pass through the URL so the page stays shareable.

No JS? Fill the form by hand. The geolocation button needs JavaScript.